Regional Weather Roundup
Issued by NWS Charleston, WV

Home | Current Version | Previous Version | Text Only | Print | Product List | Glossary On
Versions: 1 2 3 4 5 6 7 8 9 10 11 12 13 14 15 16 17 18 19 20 21 22 23 24 25 26 27 28 29 30 31 32 33 34 35 36 37 38 39 40 41 42 43 44 45 46 47 48 49 50
000
ASUS41 KRLX 010110
RWRRLX
Regional Weather Roundup
National Weather Service Charleston WV
800 PM EST SUN FEB 28 2021

Note: "fair" indicates few or no clouds below 12,000 feet with no
significant weather and/or obstructions to visibility.

WVZ003-010200-
Northern Panhandle of West Virginia

CITY           SKY/WX    TMP DP  RH WIND       PRES   REMARKS
WHEELING       LGT RAIN  59  56  89 SW12G20   29.76R
$$

WVZ009-010200-
Northwest West Virginia

CITY           SKY/WX    TMP DP  RH WIND       PRES   REMARKS
PARKERSBURG    CLOUDY    63  57  82 SW13      29.79R
$$

WVZ006-010200-
Western West Virginia

CITY           SKY/WX    TMP DP  RH WIND       PRES   REMARKS
HUNTINGTON     CLOUDY    62  59  90 SW9       29.82R
$$

WVZ015-010200-
West Central West Virginia

CITY           SKY/WX    TMP DP  RH WIND       PRES   REMARKS
CHARLESTON     RAIN      62  60  93 SW12      29.86S FOG
$$

WVZ509-031-039-010200-
North Central West Virginia

CITY           SKY/WX    TMP DP  RH WIND       PRES   REMARKS
MORGANTOWN     CLOUDY    61  56  83 SW5       29.81R
CLARKSBURG     MOCLDY    60  57  89 SW7       29.81R
BUCKHANNON     CLOUDY    61  61 100 SW13G20   29.81S
$$

WVZ515-516-025-034-042-507-010200-
Southern West Virginia

CITY           SKY/WX    TMP DP  RH WIND       PRES   REMARKS
BECKLEY        LGT RAIN  58  57  97 W6        29.89F FOG
LOGAN          RAIN      59  59 100 VRB6G14   29.91S
PINEVILLE      CLOUDY    59  59  99 MISG      29.93S FOG
BLUEFIELD      LGT RAIN  62  54  74 W18       29.94F
LEWISBURG      LGT RAIN  51  49  93 CALM      29.91F
$$

WVZ525-526-010200-
Northern Mountains of West Virginia

CITY           SKY/WX    TMP DP  RH WIND       PRES   REMARKS
ELKINS         LGT RAIN  58  54  86 S9G17     29.84F
$$

WVZ502-504-052-010200-
Eastern Panhandle of West Virginia

CITY           SKY/WX    TMP DP  RH WIND       PRES   REMARKS
PETERSBURG     DRIZZLE   46  46 100 N3        29.87F
CUMBERLAND     CLOUDY    43  42  96 N5        29.93F
MARTINSBURG    CLOUDY    42  41  96 E6        29.92S FOG
$$

OHZ075-083-KYZ101-010200-
Southeast Ohio/Northeast Kentucky

CITY           SKY/WX    TMP DP  RH WIND       PRES   REMARKS
ATHENS         MOCLDY   N/A N/A N/A SW6       29.79F
JACKSON        NOT AVBL
ASHLAND        CLOUDY    60  60 100 W3        29.83R
$$




USA.gov is the U.S. government's official web portal to all federal, state and local government web resources and services.